Asuncion, Paraguay

1:51 PM -03 en Diciembre 18, 2018 (GMT -0300)
Silvio Pettirossi International

Tiempo Historia de SGAS - Noviembre, 2018

Change the Weather History Date:

Viernes, Noviembre 9, 2018

  Actual Average Record
Temperature  
Temperatura media 80 ° F -  
Temperatura máxima 87 ° F 88 ° F 98 ° F (2002)
Temperatura mínima 72 ° F 69 ° F 59 ° F (1999)
Cooling Degree Days 14    
Growing Degree Days 30 (Base 50)    
Moisture  
Punto de rocío 66 ° F    
Average Humidity 58    
Maximum Humidity 78    
Minimum Humidity 41    
Precipitación  
Precipitación 0.00 pul 0.19 pul - ()
Presión al nivel del mar  
Presión al nivel del mar 29.88 pul    
Viento  
Velocidad del viento 7 mph ()    
Velocidad máxima del viento 14 mph    
Max Gust Speed -    
Visibilidad 8.5 Millas    
Eventos      
Averages and records for this station are not official NWS values.
T = Trace of Precipitation, MM = Missing Value Source: Averaged Metar Reports

Daily Weather History Graph

Daily Weather History Graph

Search for Another Location

Airport or City:

Astronomía

Nov. 09, 2018 Salida Puesta
Hora real 5:57 AM -03 7:11 PM -03
Crepúsculo civil 5:32 AM -03 7:35 PM -03
Crepúsculo náutico 5:03 AM -03 8:04 PM -03
Crepúsculo astronómico 4:33 AM -03 8:34 PM -03
Luna 7:30 AM -03 (11/9) 9:10 PM -03 (11/9)
Horas de luz 14h 02m
Horas de luz
13h 13m
Creciente, 4% of the Moon is Illuminated
Nov 9
Creciente
Nov 15
Cuarto creciente
Nov 23
Luna llena
Nov 29
Cuarto menguante
Dic 7
Nueva

Hourly Weather History & Observations

Hora (-03) Temp. Índice de calor Punto de rocío Humedad Presión Visibilidad Wind Dir Velocidad del viento Velocidad de ráfagas Precip Eventos Condiciones
12:00 AM 77 ° F - 65 ° F 59% 29.91 pul 12 mi Este 5.8 mph - -  
12:00 AM 78.8 ° F - 64.4 ° F 61% 29.89 pul - Este 5.8 mph - N/A   Despejado
1:00 AM 78.8 ° F - 64.4 ° F 61% 29.89 pul - Este 8.1 mph - N/A   Despejado
3:00 AM 76 ° F - 63 ° F 55% 29.89 pul 12 mi ENE 11.5 mph - -  
4:00 AM 75.2 ° F - 62.6 ° F 65% 29.86 pul - ENE 10.4 mph - N/A   Despejado
5:00 AM 73.4 ° F - 62.6 ° F 69% 29.89 pul - ENE 8.1 mph - N/A   Despejado
6:00 AM 72 ° F - 63 ° F 65% 29.92 pul 12 mi ENE 6.9 mph - -  
6:00 AM 71.6 ° F - 64.4 ° F 78% 29.89 pul - ENE 6.9 mph - N/A   Despejado
7:00 AM 73.4 ° F - 64.4 ° F 73% 29.92 pul - ENE 6.9 mph - N/A   Despejado
8:00 AM 75.2 ° F - 64.4 ° F 69% 29.95 pul - Este 10.4 mph - N/A   Despejado
8:30 AM 77.0 ° F - 64.4 ° F 65% 29.95 pul - ENE 11.5 mph - N/A   Despejado
9:00 AM 78 ° F - 62 ° F 48% 29.96 pul 12 mi ENE 11.5 mph - -  
9:00 AM 78.8 ° F - 64.4 ° F 61% 29.95 pul - ENE 11.5 mph - N/A   Despejado
9:30 AM 78.8 ° F - 64.4 ° F 61% 29.95 pul - ENE 13.8 mph - N/A   Despejado
10:00 AM 80.6 ° F 82.3 ° F 64.4 ° F 58% 29.95 pul - NE 12.7 mph - N/A   Despejado
10:30 AM 82.4 ° F 83.9 ° F 64.4 ° F 54% 29.95 pul - ENE 11.5 mph - N/A   Despejado
11:00 AM 82.4 ° F 83.9 ° F 64.4 ° F 54% 29.95 pul - ENE 9.2 mph - N/A   Despejado
12:00 PM 83 ° F - 65 ° F 44% 29.93 pul 12 mi ENE 8.1 mph - -   Nubes dispersas
12:00 PM 84.2 ° F 86.6 ° F 66.2 ° F 55% 29.92 pul 6.2 mi ENE 8.1 mph - N/A   Parcialmente nublado
1:00 PM 86.0 ° F 88.2 ° F 66.2 ° F 51% 29.89 pul 6.2 mi ENE 10.4 mph - N/A   Parcialmente nublado
2:00 PM 87.8 ° F 91.4 ° F 68.0 ° F 52% 29.86 pul 6.2 mi Este 9.2 mph - N/A   Parcialmente nublado
3:00 PM 87 ° F - 66 ° F 41% 29.84 pul 12 mi Este 9.2 mph - -   Nubes dispersas
3:00 PM 87.8 ° F 91.4 ° F 68.0 ° F 52% 29.83 pul 6.2 mi Este 9.2 mph - N/A   Parcialmente nublado
4:00 PM 87.8 ° F 91.4 ° F 68.0 ° F 52% 29.80 pul 6.2 mi Este 9.2 mph - N/A   Parcialmente nublado
5:00 PM 87.8 ° F 90.4 ° F 66.2 ° F 49% 29.80 pul 6.2 mi ENE 9.2 mph - N/A   Parcialmente nublado
6:00 PM 86 ° F - 67 ° F 43% 29.79 pul 12 mi Este 6.9 mph - -   Parcialmente nublado
6:00 PM 86.0 ° F 89.4 ° F 68.0 ° F 55% 29.77 pul 6.2 mi Este 6.9 mph - N/A   Nubes dispersas
7:00 PM 84.2 ° F 87.3 ° F 68.0 ° F 58% 29.80 pul 6.2 mi Variable 4.6 mph - N/A   Nubes dispersas
8:00 PM 82.4 ° F 85.4 ° F 68.0 ° F 62% 29.80 pul 6.2 mi Variable 3.5 mph - N/A   Nubes dispersas
9:00 PM 80 ° F - 68 ° F 58% 29.83 pul 12 mi ESE 4.6 mph - -   Parcialmente nublado
9:00 PM 80.6 ° F 83.2 ° F 68.0 ° F 65% 29.80 pul 6.2 mi Variable 3.5 mph - N/A   Nubes dispersas
10:00 PM 80.6 ° F 83.2 ° F 68.0 ° F 65% 29.80 pul 6.2 mi Variable 4.6 mph - N/A   Nubes dispersas
11:00 PM 78.8 ° F - 68.0 ° F 69% 29.80 pul 6.2 mi Variable 5.8 mph - N/A   Parcialmente nublado